This is the latest recevied weather packets stored in our database for station/object DB8NZ-11. If no packets are shown the sender has not sent any weather packets the latest 10 day(s).
| Time | Temp. | Humidity | Pressure | Rain* | Wind** | Luminosity | Snow |
|---|---|---|---|---|---|---|---|
| 1777413760 | 11.67° C | 41% | 1026.6 hPa | - | - | - | - |
| 1777412860 | 11.67° C | 40% | 1026.4 hPa | - | - | - | - |
| 1777411960 | 12.22° C | 40% | 1026.3 hPa | - | - | - | - |
| 1777411060 | 12.78° C | 39% | 1026.2 hPa | - | - | - | - |
| 1777410160 | 12.78° C | 38% | 1026.1 hPa | - | - | - | - |
| 1777409260 | 13.33° C | 37% | 1025.9 hPa | - | - | - | - |
| 1777408360 | 13.89° C | 37% | 1025.9 hPa | - | - | - | - |
| 1777407460 | 13.89° C | 36% | 1025.8 hPa | - | - | - | - |
| 1777406560 | 14.44° C | 36% | 1025.7 hPa | - | - | - | - |
| 1777405660 | 15° C | 35% | 1025.5 hPa | - | - | - | - |
| 1777404760 | 15° C | 34% | 1025.2 hPa | - | - | - | - |
| 1777403860 | 15.56° C | 34% | 1024.9 hPa | - | - | - | - |
| 1777402959 | 16.11° C | 35% | 1024.8 hPa | - | - | - | - |
| 1777402059 | 16.67° C | 33% | 1024.6 hPa | - | - | - | - |
| 1777401159 | 17.22° C | 33% | 1024.4 hPa | - | - | - | - |
| 1777400259 | 17.78° C | 33% | 1024.2 hPa | - | - | - | - |
| 1777399358 | 18.33° C | 32% | 1023.9 hPa | - | - | - | - |
| 1777398458 | 18.89° C | 31% | 1023.7 hPa | - | - | - | - |
| 1777398114 | 19.44° C | 32% | 1023.6 hPa | - | - | - | - |
| 1777397213 | 20.56° C | 31% | 1023.4 hPa | - | - | - | - |
| 1777396313 | 21.11° C | 30% | 1023.2 hPa | - | - | - | - |
| 1777395413 | 22.78° C | 29% | 1023.2 hPa | - | - | - | - |
| 1777394639 | 22.22° C | 29% | 1023.1 hPa | - | - | - | - |
| 1777393739 | 22.78° C | 30% | 1022.9 hPa | - | - | - | - |
| 1777392839 | 23.33° C | 29% | 1022.8 hPa | - | - | - | - |
* Rain since midnight (hover to see other rain measurements)
** Current wind speed in m/s (hover to see current wind gust speed)